www.pogodaiklimat.ru
Время
и дата
03:53 30.12
04:53 30.12
05:53 30.12
06:53 30.12
07:53 30.12
08:53 30.12
09:53 30.12
10:53 30.12
11:53 30.12
12:53 30.12
13:50 30.12
13:53 30.12
14:53 30.12
15:53 30.12
16:53 30.12
17:53 30.12
18:53 30.12
19:53 30.12
20:53 30.12
21:53 30.12
22:53 30.12
23:53 30.12
00:53 31.12
01:53 31.12
02:53 31.12
03:53 31.12
04:53 31.12
05:53 31.12
06:53 31.12
07:53 31.12
08:53 31.12
09:53 31.12
10:53 31.12
11:53 31.12
12:53 31.12
13:53 31.12
13:56 31.12
14:05 31.12
14:17 31.12
14:27 31.12
14:34 31.12
14:50 31.12
14:53 31.12
15:06 31.12
15:26 31.12
15:41 31.12
15:51 31.12
15:53 31.12
Ветер
(напр.,м/с)
Видим. Явления Облачность Т
(С)
Тd
(С)
f
(%)
Тe
(С)
Тes
(С)
Комфортность P
(гПа)
Po
(гПа)
Тmin
(С)
Tmax
(С)
R
(мм)
R24
(мм)
S
(см)
ЮЗ 3 16 км 2/0 4200 м
[Ac Ci]
-2.8 -13.3 44 -9 -9 1003.6 821.3
ЮЗ 3 16 км 2/0 4200 м
[Ac Ci]
-2.2 -13.3 42 -9 -9 1004.6 821.3 -9.4 -1.7
ЮЗ 3 16 км 2/0 4200 м
[Ac Ci]
-2.2 -12.8 44 -9 -9 1005.1 821.6
Ю 3 16 км 2/0 4200 м
[Ac Ci]
-3.3 -12.8 48 -10 -10 1004.5 820.8
ЮЗ 3 16 км 2/0 2400 м
[Ac]
+0.6 -11.7 39 -5 -5 1003.3 820.2
ЮЗ 2 16 км 2/0 2400 м
[Ac]
+1.7 -11.1 38 -2 -2 1002.7 819.9
ЮЗ 4
{6}
16 км 2/0 2400 м
[Ac]
+6.1 -13.3 23 +2 +2 1001.7 819.6
З 5
{7}
16 км 2/0 2400 м
[Ac]
+7.8 -14.4 19 +3 +3 999.8 819.1 -3.3 +7.8
З 4
{7}
16 км 2/0 2400 м
[Ac]
+8.9 -16.1 15 +5 +5 998.0 818.3
З 5
{8}
16 км 2/0 2400 м
[Ac]
+9.4 -17.2 14 +5 +5 996.9 817.2
З 4
{8}
4 км дым 5/5 30 м
[Ac]
+9.0 -17.0 14 +5 +6 816.9
З 4
{6}
2 км дым 5/5 30 м
[Ac]
+8.9 -15.6 16 +5 +5 996.8 816.9
З 2 2 км дым 5/5 30 м
[Ac]
+9.4 -16.1 15 +7 +8 996.1 817.4
З 4 8 км дым 5/2 750 м
[Ac]
+8.3 -16.1 16 +4 +5 996.3 817.2
З 4 16 км 5/5 750 м
[Ac]
+6.7 -16.1 18 +3 +3 997.2 817.7 +6.7 +9.4
СЗ 1 16 км 2/2 900 м
[Ac]
+6.1 -16.1 19 +5 +5 998.3 818.5
ЮЗ 2 16 км 2/2 900 м
[Ac]
+3.3 -15.0 25 0 0 999.2 818.5
ЮЗ 3 16 км 2/2 900 м
[Ac]
+5.0 -13.3 25 +1 +1 997.1 817.7
ЮЗ 3
{4}
16 км 2/2 900 м
[Ac]
+5.0 -12.8 26 +1 +1 996.7 817.7
ЮЗ 3 16 км 2/2 900 м
[Ac]
+5.0 -13.3 25 +1 +1 995.6 817.7
В 1 16 км 2/2 900 м
[Ac]
-1.7 -14.4 37 -6 -6 996.3 817.4 -1.7 +6.7
ЮЗ 2 16 км 2/2 900 м
[Ac]
+1.1 -12.8 35 -3 -3 994.8 816.9
ЮЗ 3 16 км 2/2 900 м
[Ac]
+2.2 -11.7 35 -3 -3 994.3 816.9
ЮЗ 3 16 км 2/0 2100 м
[Ac]
+1.1 -11.1 40 -5 -5 994.8 816.9
Ю 3 16 км 2/0 2100 м
[Ac]
+0.6 -10.0 45 -6 -6 994.8 816.9
Ю 3 16 км 2/0 2400 м
[Ac]
0.0 -9.4 49 -6 -6 994.3 816.3
ЮЗ 3 16 км 2/0 2400 м
[Ac]
+0.6 -8.9 49 -5 -5 994.5 816.0 -2.8 +3.3
С 4
{5}
16 км 5/0 2400 м
[Ac Ci]
-1.7 -10.6 51 -10 -10 997.0 817.4
СВ 2 16 км 5/0 2400 м
[Ac Ci]
-4.4 -10.6 62 -10 -10 998.5 817.7
ЮВ 1 16 км 5/0 2400 м
[Ac Ci]
-5.6 -10.6 68 -10 -10 999.6 818.8
В 1 16 км 5/0 2700 м
[Ac Ci]
-1.1 -8.9 55 -5 -5 1000.1 819.9
СВ 1 16 км 5/0 2700 м
[Ac Ci]
+0.6 -8.3 51 -3 -2 1000.6 820.5
СВ 2
{4}
16 км 8/2 1800 м
[Ac Ci]
+2.2 -8.3 46 -2 -1 1001.3 820.5 -6.7 +2.2
В 2 16 км 8/2 1500 м
[Ac]
+2.2 -8.9 44 -2 0 999.5 819.4
В 4
{5}
16 км 8/8 1500 м
[Ac]
+3.3 -9.4 39 -2 -2 997.5 818.3
СВ 4 16 км 8/8 1350 м +0.6 -6.7 58 -7 -6 998.3 818.3
СВ 3
{5}
14 км слабый снег 10/10 990 м +0.6 -6.1 61 -6 -6 818.3
СВ 4 3 км слабый снег 10/10 990 м 0.0 -5.6 66 -7 -7 818.3
СВ 3 2 км слабый снег 10/10 990 м -1.1 -4.4 78 -8 -8 818.3
СВ 4 1 км слабый снег, дымка 10/10 990 м -1.7 -3.9 85 -10 -10 818.5
СВ 3 1 км слабый снег, дымка ?/? -1.7 -3.9 85 -9 -9 818.5
СВ 3 2 км слабый снег, дымка ?/? -2.0 -4.0 86 -10 -10 818.5
СВ 3 2 км слабый снег, дымка ?/? -2.2 -3.9 88 -10 -10 999.3 818.3
СВ 4 3 км слабый снег, дымка 10/10 450 м -2.2 -3.9 88 -10 -10 818.3
СВ 3 11 км слабый снег 10/10 450 м -1.7 -4.4 82 -9 -9 818.5
СВ 3 3 км слабый снег, дымка 10/10 660 м -2.2 -4.4 85 -10 -10 818.5
СВ 4 1 км слабый снег, дымка 10/10 450 м -2.0 -4.0 86 -10 -10 818.8
СВ 4
{5}
1 км слабый снег, дымка 10/10 420 м -2.2 -4.4 85 -11 -11 1000.0 818.8
Местоположение метеостанции Denver International Airport: широта 39.8466 долгота -104.6562 высота над уровнем моря 1647 м.
В архиве по умолчанию представлена погода в Денвере за последние 1-2 суток. Обновление информации о фактической погоде в базе происходит ежечасно! Архивные данные за месяц целиком и за предыдущие месяцы Вы можете получить, выбрав интересующий диапазон дат из раскрывающегося списка и нажав кнопку "Ввод!".
Внимание! Архив погоды МЕТАР в базе сайта по станциям, не включенным в климатический монитор, хранится не более 60 дней. Нет смысла пытаться выбрать более раннюю дату.
*Определитесь, кто Вы:
Внимание! Время в таблицах - местное (без учета летнего времени). Для получения всемирного времени необходимо вычесть поправку, которая равна -7 ч.
Смотрите также архив погоды в соседних городах и на ближайших метеорологических станциях:
Партнеры нашего сайта:      
Пояснения к столбцам:
  • Ветер - указаны скорость ветра в м/с - средняя за 10 мин, порывы в срок и между сроками (в фигурных скобках) и направление, откуда дует ветер: С - северный,
  • СВ - северо-восточный, В - восточный, ЮВ - юго-восточный, Ю - южный, ЮЗ - юго-западный, З - западный, СЗ - северо-западный.
  • Видимость - горизонтальная дальность видимости в метрах или километрах. При видимости от 1 до 10 км при отсутствии осадков обычно наблюдается дымка, при ухудшении видимости до 1 км и менее - туман. В сухую погоду видимость может ухудшаться дымом, пылью или мглою.
  • Явления - указаны атмосферные явления, наблюдавшиеся в срок или в последний час перед сроком; фигурными скобками обозначены явления, наблюдавшиеся между сроками (за 1-3 часа до срока); квадратными скобками обозначены град или гололедные отложения с указанием их диаметра в мм.
  • Облачность - указаны через наклонную черту общая и нижняя облачность в баллах и высота нижней границы облаков в метрах; квадратными скобками обозначены формы облаков: Ci - перистые, Cs - перисто-слоистые, Cc - перисто-кучевые, Ac - высококучевые, As - высокослоистые, Sc - слоисто-кучевые, Ns - слоисто-дождевые, Cu - кучевые, Cb - кучево-дождевые. Подробнее классификацию облаков см. в Атласе облаков (PDF).
  • T - Температура воздуха - температура, измеренная на высоте 2 м над землей.
  • Td - Температура точки росы - температура, при понижении до которой содержащийся в воздухе водяной пар достигнет насыщения.
  • f - Относительная влажность воздуха - влажноcть воздуха, измеренная на высоте 2 м над землей.
  • Te - Эффективная температура - температура, которую ощущает одетый по сезону человек в тени. Характеристика душности погоды. При расчете учитывается влияние влажности воздуха и скорости ветра на теплоощущения человека.
  • Tes - Эффективная температура на солнце - температура, которую ощущает человек, с поправкой на солнечный нагрев. Характеристика знойности погоды. Зависит от высоты солнца над горизонтом, облачности и скорости ветра. Ночью, в пасмурную погоду, а также при ветре 12 м/с и более поправка равна нулю.
  • P - Атмосферное давление - приведенное к уровню моря атмосферное давление.
  • Po - Атмосферное давление - измеренное на уровне метеостанции атмосферное давление.
  • Tmin - Минимальная температура - минимум температуры воздуха на высоте 2 м над землей.
  • Tmax - Максимальная температура - максимум температуры воздуха на высоте 2 м над землей.
  • R - Количество осадков - Количество выпавших осадков за период времени, мм. При наведении курсора мыши на число - период времени, за который выпало указанное количество осадков.
  • R24 - Количество осадков - Количество выпавших осадков за 24 часа, мм.
  • S - Снежный покров - Высота снежного покрова, см. При наведении курсора мыши на число - состояние снежного покрова и степень покрытия местности в баллах.